Meteo pe oră la Dacha

Astăzi, 12 Aprilie, Luni

Timp Temperatura Precipitaţii Vânt Presiune Umiditate
00:00 +7°C° 0 mm 3 m/s 756 mmHg 71%
01:00 +7°C° 0 mm 3 m/s 756 mmHg 73%
02:00 +6°C° 0 mm 2 m/s 757 mmHg 75%
03:00 +6°C° 0 mm 2 m/s 756 mmHg 76%
04:00 +5°C° 0 mm 2 m/s 756 mmHg 77%
05:00 +5°C° 0 mm 2 m/s 756 mmHg 79%
06:00 +5°C° 0 mm 3 m/s 756 mmHg 73%
07:00 +8°C° 0 mm 3 m/s 756 mmHg 68%
08:00 +9°C° 0 mm 3 m/s 756 mmHg 62%
09:00 +11°C° 0 mm 4 m/s 755 mmHg 56%
10:00 +12°C° 0 mm 4 m/s 755 mmHg 49%
11:00 +14°C° 0 mm 4 m/s 755 mmHg 43%
12:00 +14°C° 0 mm 4 m/s 754 mmHg 40%
13:00 +15°C° 0 mm 4 m/s 754 mmHg 36%
14:00 +15°C° 0 mm 4 m/s 753 mmHg 33%
15:00 +16°C° 0 mm 3 m/s 753 mmHg 38%
16:00 +14°C° 0 mm 3 m/s 753 mmHg 44%
17:00 +14°C° 0 mm 3 m/s 752 mmHg 49%
18:00 +12°C° 0 mm 3 m/s 753 mmHg 60%
19:00 +11°C° 0 mm 4 m/s 753 mmHg 71%
20:00 +8°C° 0 mm 4 m/s 753 mmHg 82%
21:00 +9°C° 0 mm 3 m/s 753 mmHg 86%
22:00 +8°C° 0 mm 3 m/s 753 mmHg 90%
23:00 +8°C° 0 mm 2 m/s 752 mmHg 93%

Mâine, 13 Aprilie, Marţi

Timp Temperatura Precipitaţii Vânt Presiune Umiditate
00:00 +8°C° 0 mm 2 m/s 752 mmHg 93%
01:00 +9°C° 0 mm 1 m/s 752 mmHg 92%
02:00 +9°C° 0 mm 1 m/s 752 mmHg 91%
03:00 +9°C° 0 mm 1 m/s 752 mmHg 91%
04:00 +9°C° 0 mm 1 m/s 752 mmHg 91%
05:00 +9°C° 0 mm 1 m/s 752 mmHg 91%
06:00 +10°C° 0 mm 1 m/s 751 mmHg 89%
07:00 +10°C° 0 mm 2 m/s 751 mmHg 87%
08:00 +10°C° 0 mm 2 m/s 751 mmHg 85%
09:00 +13°C° 0 mm 2 m/s 751 mmHg 77%
10:00 +14°C° 0 mm 3 m/s 751 mmHg 70%
11:00 +17°C° 0 mm 3 m/s 751 mmHg 62%
12:00 +17°C° 0.1 mm 4 m/s 750 mmHg 61%
13:00 +18°C° 0.1 mm 4 m/s 750 mmHg 60%
14:00 +17°C° 0.1 mm 5 m/s 750 mmHg 60%
15:00 +17°C° 0 mm 4 m/s 750 mmHg 64%
16:00 +16°C° 0 mm 3 m/s 750 mmHg 69%
17:00 +15°C° 0 mm 2 m/s 749 mmHg 74%
18:00 +14°C° 0 mm 2 m/s 749 mmHg 77%
19:00 +14°C° 0 mm 2 m/s 749 mmHg 80%
20:00 +13°C° 0 mm 2 m/s 749 mmHg 83%
21:00 +13°C° 0 mm 2 m/s 749 mmHg 85%
22:00 +12°C° 0 mm 2 m/s 749 mmHg 87%
23:00 +12°C° 0 mm 2 m/s 749 mmHg 89%

Poimâine, 14 Aprilie, Miercuri

Timp Temperatura Precipitaţii Vânt Presiune Umiditate
00:00 +12°C° 0 mm 2 m/s 749 mmHg 89%
01:00 +12°C° 0 mm 2 m/s 748 mmHg 89%
02:00 +10°C° 0 mm 2 m/s 748 mmHg 90%
03:00 +10°C° 0 mm 2 m/s 748 mmHg 90%
04:00 +10°C° 0 mm 2 m/s 748 mmHg 90%
05:00 +9°C° 0 mm 2 m/s 748 mmHg 91%
06:00 +10°C° 0 mm 3 m/s 748 mmHg 88%
07:00 +11°C° 0 mm 3 m/s 748 mmHg 86%
08:00 +11°C° 0 mm 3 m/s 748 mmHg 83%
09:00 +12°C° 0 mm 4 m/s 748 mmHg 77%
10:00 +13°C° 0 mm 4 m/s 748 mmHg 71%
11:00 +14°C° 0 mm 4 m/s 748 mmHg 65%
12:00 +14°C° 0 mm 3 m/s 747 mmHg 63%
13:00 +14°C° 0 mm 3 m/s 747 mmHg 61%
14:00 +14°C° 0 mm 3 m/s 747 mmHg 59%
15:00 +15°C° 0 mm 2 m/s 747 mmHg 61%
16:00 +15°C° 0 mm 2 m/s 747 mmHg 62%
17:00 +15°C° 0 mm 2 m/s 747 mmHg 63%
18:00 +14°C° 0.1 mm 1 m/s 747 mmHg 68%
19:00 +13°C° 0.1 mm 1 m/s 747 mmHg 74%
20:00 +12°C° 0.1 mm 1 m/s 747 mmHg 79%
21:00 +12°C° 2.1 mm 1 m/s 746 mmHg 84%
22:00 +12°C° 2.1 mm 1 m/s 746 mmHg 90%
23:00 +10°C° 2.1 mm 2 m/s 746 mmHg 95%

15 Aprilie, Joi

Timp Temperatura Precipitaţii Vânt Presiune Umiditate
00:00 +10°C° 2.4 mm 2 m/s 746 mmHg 94%
01:00 +10°C° 2.4 mm 3 m/s 746 mmHg 93%
02:00 +9°C° 2.4 mm 3 m/s 746 mmHg 93%
03:00 +9°C° 0.8 mm 3 m/s 746 mmHg 93%
04:00 +9°C° 0.8 mm 3 m/s 746 mmHg 93%
05:00 +9°C° 0.8 mm 3 m/s 746 mmHg 93%
06:00 +9°C° 0.3 mm 2 m/s 746 mmHg 91%
07:00 +9°C° 0.3 mm 2 m/s 747 mmHg 89%
08:00 +9°C° 0.3 mm 2 m/s 747 mmHg 87%
09:00 +10°C° 0.2 mm 2 m/s 747 mmHg 81%
10:00 +12°C° 0.2 mm 2 m/s 747 mmHg 76%
11:00 +13°C° 0.2 mm 2 m/s 747 mmHg 70%
12:00 +14°C° 0.3 mm 2 m/s 747 mmHg 68%
13:00 +14°C° 0.3 mm 2 m/s 747 mmHg 66%
14:00 +14°C° 0.3 mm 1 m/s 747 mmHg 64%
15:00 +14°C° 0.4 mm 1 m/s 747 mmHg 67%
16:00 +14°C° 0.4 mm 1 m/s 747 mmHg 69%
17:00 +14°C° 0.4 mm 2 m/s 747 mmHg 71%
18:00 +13°C° 0.2 mm 2 m/s 747 mmHg 77%
19:00 +10°C° 0.2 mm 2 m/s 747 mmHg 82%
20:00 +9°C° 0.2 mm 3 m/s 747 mmHg 88%
21:00 +9°C° 0.1 mm 3 m/s 747 mmHg 90%
22:00 +9°C° 0.1 mm 3 m/s 747 mmHg 92%
23:00 +7°C° 0.1 mm 4 m/s 747 mmHg 94%

16 Aprilie, Vineri

Timp Temperatura Precipitaţii Vânt Presiune Umiditate
00:00 +8°C° 0.1 mm 4 m/s 748 mmHg 93%
01:00 +8°C° 0.1 mm 5 m/s 748 mmHg 93%
02:00 +8°C° 0.1 mm 5 m/s 748 mmHg 92%
03:00 +8°C° 0 mm 5 m/s 748 mmHg 92%
04:00 +7°C° 0 mm 6 m/s 748 mmHg 91%
05:00 +7°C° 0 mm 6 m/s 748 mmHg 91%
06:00 +7°C° 0.2 mm 6 m/s 749 mmHg 90%
07:00 +5°C° 0.2 mm 7 m/s 749 mmHg 89%
08:00 +5°C° 0.2 mm 7 m/s 749 mmHg 88%
09:00 +6°C° 0 mm 7 m/s 750 mmHg 86%
10:00 +6°C° 0 mm 7 m/s 750 mmHg 84%
11:00 +8°C° 0 mm 7 m/s 751 mmHg 81%
12:00 +7°C° 0.1 mm 8 m/s 751 mmHg 80%
13:00 +7°C° 0.1 mm 8 m/s 751 mmHg 79%
14:00 +7°C° 0.1 mm 8 m/s 751 mmHg 78%
15:00 +7°C° 0 mm 8 m/s 752 mmHg 76%
16:00 +7°C° 0 mm 8 m/s 752 mmHg 73%
17:00 +7°C° 0 mm 8 m/s 753 mmHg 70%
18:00 +8°C° 0 mm 7 m/s 753 mmHg 67%
19:00 +8°C° 0 mm 7 m/s 753 mmHg 65%
20:00 +6°C° 0 mm 7 m/s 754 mmHg 62%
21:00 +6°C° 0 mm 7 m/s 754 mmHg 61%
22:00 +5°C° 0 mm 7 m/s 755 mmHg 61%
23:00 +5°C° 0 mm 7 m/s 755 mmHg 60%

17 Aprilie, Sâmbătă

Timp Temperatura Precipitaţii Vânt Presiune Umiditate
00:00 +4°C° 0 mm 6 m/s 755 mmHg 61%
01:00 +3°C° 0 mm 6 m/s 756 mmHg 62%
02:00 +2°C° 0 mm 6 m/s 756 mmHg 63%
03:00 +1°C° 0 mm 6 m/s 756 mmHg 66%
04:00 +1°C° 0 mm 6 m/s 757 mmHg 68%
05:00 0°C° 0 mm 5 m/s 757 mmHg 71%
06:00 +1°C° 0 mm 5 m/s 757 mmHg 67%
07:00 +2°C° 0 mm 6 m/s 758 mmHg 64%
08:00 +3°C° 0 mm 6 m/s 758 mmHg 61%
09:00 +4°C° 0 mm 6 m/s 758 mmHg 56%
10:00 +7°C° 0 mm 6 m/s 758 mmHg 51%
11:00 +8°C° 0 mm 6 m/s 758 mmHg 46%
12:00 +9°C° 0 mm 6 m/s 758 mmHg 44%
13:00 +10°C° 0 mm 6 m/s 758 mmHg 41%
14:00 +10°C° 0 mm 6 m/s 758 mmHg 39%
15:00 +10°C° 0 mm 5 m/s 758 mmHg 42%
16:00 +10°C° 0 mm 5 m/s 758 mmHg 44%
17:00 +9°C° 0 mm 5 m/s 758 mmHg 46%
18:00 +8°C° 0 mm 4 m/s 758 mmHg 52%
19:00 +8°C° 0 mm 3 m/s 758 mmHg 57%
20:00 +5°C° 0 mm 3 m/s 759 mmHg 62%
21:00 +5°C° 0 mm 3 m/s 759 mmHg 64%
22:00 +4°C° 0 mm 3 m/s 759 mmHg 65%
23:00 +3°C° 0 mm 3 m/s 759 mmHg 67%
Arată mai mult

Formular de consimțământ

Meteoprog și furnizorii noștri de servicii pot stoca și accesa date personale, precum cookies, identificatori de dispozitiv sau alte tehnologii similare pe dispozitivul dumneavoastră și procesa astfel de date pentru a personaliza conținutul și reclamele, dar și pentru a oferi caracteristici de social media și pentru a analiza traficul.

  • Stocarea și/sau accesarea informațiilor pe dispozitivul dumneavoastră

    Cookies, identificatori de dispozitiv sau alte informații pot fi stocate sau accesate pe dispozitiv în scopurile indicate mai sus.

  • Reclame și conținut personalizat, evaluarea reclamelor și a conținutului, informații despre audiențe și dezvoltarea produselor

    Reclamele și conținutul pot fi personalizate pe baza unui profil. Pot fi adăugate date suplimentare pentru a personaliza mai bine reclamele și conținutul. Performanța reclamelor și conținutului poate fi măsurată. Pot fi obținute informații despre utilizatorii care au văzut reclamele și conținutul. Aceste date pot fi utilizate pentru a dezvolta sau îmbunătăți experiența utilizatorilor, sistemele și software-ul.

Dând clic pe ‘Sunt de acord’, permiteți utilizarea cookie-urilor menționate, a identificatorilor de dispozitiv, balizelor web sau altor tehnologii similare. Setările pot fi modificate din browser-ul dispozitivului dumneavoastră.

În anumite scopuri, interesele legitime pot prima asupra consimțământului. Puteți citi mai multe informații în acest sens în Politica privind Confidențialitatea Datelor și Cookie.